This is the latest recevied weather packets stored in our database for station/object KB1ZFK. If no packets are shown the sender has not sent any weather packets the latest 10 day(s).
| Time | Temp. | Humidity | Pressure | Rain* | Wind** | Luminosity | Snow |
|---|---|---|---|---|---|---|---|
| 1778009482 | 27.78° C | 35% | 1004.5 hPa | 0 mm | - | 123 W/m² | - |
| 1778009181 | 27.22° C | 34% | 1004.6 hPa | 0 mm | - | 293 W/m² | - |
| 1778008877 | 27.22° C | 35% | 1004.8 hPa | 0 mm | - | 675 W/m² | - |
| 1778008576 | 27.22° C | 34% | 1004.6 hPa | 0 mm | - | 706 W/m² | - |
| 1778008274 | 27.78° C | 33% | 1004.6 hPa | 0 mm | - | 606 W/m² | - |
| 1778007969 | 28.33° C | 33% | 1004.6 hPa | 0 mm | - | 186 W/m² | - |
| 1778007664 | 27.78° C | 33% | 1004.8 hPa | 0 mm | - | 689 W/m² | - |
| 1778007361 | 27.78° C | 34% | 1004.9 hPa | 0 mm | - | 689 W/m² | - |
| 1778007057 | 27.22° C | 35% | 1005.2 hPa | 0 mm | - | 781 W/m² | - |
| 1778006754 | 27.78° C | 34% | 1005.2 hPa | 0 mm | - | 157 W/m² | - |
| 1778006451 | 27.22° C | 34% | 1005.1 hPa | 0 mm | - | 435 W/m² | - |
| 1778006148 | 27.22° C | 34% | 1005.5 hPa | 0 mm | - | 803 W/m² | - |
| 1778005846 | 27.78° C | 34% | 1005.3 hPa | 0 mm | - | 847 W/m² | - |
| 1778005542 | 28.33° C | 34% | 1005.5 hPa | 0 mm | - | 195 W/m² | - |
| 1778005238 | 27.78° C | 33% | 1005.5 hPa | 0 mm | - | 856 W/m² | - |
| 1778004935 | 27.22° C | 35% | 1005.7 hPa | 0 mm | - | 872 W/m² | - |
| 1778004633 | 27.22° C | 35% | 1005.7 hPa | 0 mm | - | 226 W/m² | - |
| 1778004328 | 26.67° C | 36% | 1005.7 hPa | 0 mm | - | 792 W/m² | - |
| 1778004027 | 26.67° C | 35% | 1005.6 hPa | 0 mm | - | 371 W/m² | - |
| 1778003726 | 27.22° C | 35% | 1005.9 hPa | 0 mm | - | 854 W/m² | - |
| 1778003424 | 27.78° C | 34% | 1005.9 hPa | 0 mm | - | 221 W/m² | - |
| 1778003121 | 27.22° C | 35% | 1005.7 hPa | 0 mm | - | 874 W/m² | - |
| 1778002816 | 28.33° C | 34% | 1006 hPa | 0 mm | - | 846 W/m² | - |
| 1778002513 | 27.78° C | 34% | 1005.8 hPa | 0 mm | - | 778 W/m² | - |
| 1778002210 | 26.67° C | 35% | 1006.2 hPa | 0 mm | - | 820 W/m² | - |
* Rain latest hour (hover to see other rain measurements)
** Current wind speed in m/s (hover to see current wind gust speed)